| time (UTC) | temp F | wind direction | speed knots | gust knots | rain 1hr in | rain 24hr in | rain mn in | humidity % | barometer mb |
| 20260507171218 | 58 | 156 | 3.5 | 7.0 | 0.00 | 0.00 | 0.00 | 57 | 1014.1 |
| 20260507170003 | 59 | 161 | 3.5 | 8.7 | 0.00 | 0.00 | 0.00 | 55 | 1014.1 |
| 20260507165004 | 59 | 184 | 3.5 | 7.8 | 0.00 | 0.00 | 0.00 | 55 | 1014.0 |
| 20260507164003 | 60 | 182 | 2.6 | 7.0 | 0.00 | 0.00 | 0.00 | 56 | 1014.0 |
| 20260507163003 | 60 | 177 | 4.3 | 13.0 | 0.00 | 0.00 | 0.00 | 55 | 1014.1 |
| 20260507162218 | 61 | 162 | 3.5 | 10.4 | 0.00 | 0.00 | 0.00 | 52 | 1014.1 |
| 20260507161003 | 62 | 162 | 4.3 | 12.2 | 0.00 | 0.00 | 0.00 | 54 | 1014.1 |
| 20260507160003 | 62 | 162 | 6.1 | 11.3 | 0.00 | 0.00 | 0.00 | 50 | 1014.1 |
| 20260507155217 | 62 | 146 | 7.0 | 13.0 | 0.00 | 0.00 | 0.00 | 49 | 1014.2 |
| 20260507154003 | 63 | 166 | 4.3 | 13.0 | 0.00 | 0.00 | 0.00 | 49 | 1014.2 |
| 20260507153003 | 63 | 153 | 7.0 | 12.2 | 0.00 | 0.00 | 0.00 | 49 | 1014.2 |
| 20260507152003 | 62 | 154 | 4.3 | 13.0 | 0.00 | 0.00 | 0.00 | 55 | 1014.2 |
| 20260507151217 | 62 | 159 | 3.5 | 8.7 | 0.00 | 0.00 | 0.00 | 55 | 1014.2 |
| 20260507150003 | 62 | 168 | 4.3 | 8.7 | 0.00 | 0.00 | 0.00 | 54 | 1014.3 |
| 20260507145003 | 62 | 166 | 4.3 | 11.3 | 0.00 | 0.00 | 0.00 | 53 | 1014.4 |
| 20260507144003 | 62 | 173 | 3.5 | 10.4 | 0.00 | 0.00 | 0.00 | 54 | 1014.4 |
| 20260507143003 | 62 | 168 | 6.1 | 11.3 | 0.00 | 0.00 | 0.00 | 54 | 1014.6 |
| 20260507142003 | 63 | 176 | 4.3 | 13.0 | 0.00 | 0.00 | 0.00 | 54 | 1014.6 |
| 20260507141003 | 63 | 163 | 6.1 | 12.2 | 0.00 | 0.00 | 0.00 | 54 | 1014.8 |
| 20260507140003 | 62 | 177 | 6.1 | 11.3 | 0.00 | 0.00 | 0.00 | 58 | 1014.7 |
| 20260507135003 | 62 | 163 | 4.3 | 13.0 | 0.00 | 0.00 | 0.00 | 55 | 1014.7 |
| 20260507134004 | 62 | 152 | 7.0 | 13.0 | 0.00 | 0.00 | 0.00 | 56 | 1014.7 |
| 20260507133219 | 62 | 158 | 7.0 | 13.0 | 0.00 | 0.00 | 0.00 | 52 | 1014.7 |
| 20260507132003 | 62 | 154 | 6.1 | 13.9 | 0.00 | 0.00 | 0.00 | 59 | 1014.7 |
| 20260507131003 | 62 | 165 | 7.0 | 11.3 | 0.00 | 0.00 | 0.00 | 56 | 1014.7 |
| 20260507130003 | 61 | 170 | 3.5 | 7.0 | 0.00 | 0.00 | 0.00 | 64 | 1014.8 |
| 20260507125003 | 60 | 189 | 3.5 | 7.8 | 0.00 | 0.00 | 0.00 | 68 | 1014.8 |
| 20260507124003 | 58 | 173 | 4.3 | 10.4 | 0.00 | 0.00 | 0.00 | 64 | 1014.8 |
| 20260507123003 | 57 | 163 | 4.3 | 8.7 | 0.00 | 0.00 | 0.00 | 67 | 1014.9 |
| 20260507122003 | 57 | 178 | 3.5 | 7.0 | 0.00 | 0.00 | 0.00 | 67 | 1015.0 |
| 20260507121003 | 57 | 151 | 6.1 | 11.3 | 0.00 | 0.00 | 0.00 | 68 | 1015.0 |
| 20260507120003 | 58 | 155 | 4.3 | 12.2 | 0.00 | 0.00 | 0.00 | 67 | 1015.0 |
| 20260507115003 | 59 | 169 | 4.3 | 8.7 | 0.00 | 0.00 | 0.00 | 71 | 1015.0 |
| 20260507114003 | 59 | 180 | 3.5 | 8.7 | 0.00 | 0.00 | 0.00 | 69 | 1015.0 |
| 20260507113003 | 60 | 180 | 3.5 | 11.3 | 0.00 | 0.00 | 0.00 | 68 | 1015.0 |
| 20260507112004 | 61 | 154 | 6.1 | 12.2 | 0.00 | 0.00 | 0.00 | 70 | 1015.0 |
| 20260507111003 | 61 | 170 | 6.1 | 11.3 | 0.00 | 0.00 | 0.00 | 65 | 1015.0 |
| 20260507110003 | 61 | 163 | 7.0 | 13.9 | 0.00 | 0.00 | 0.00 | 67 | 1015.0 |
| 20260507105003 | 61 | 170 | 7.0 | 12.2 | 0.00 | 0.00 | 0.00 | 69 | 1015.0 |
| 20260507104003 | 62 | 155 | 7.8 | 15.6 | 0.00 | 0.00 | 0.00 | 64 | 1015.0 |
| 20260507103003 | 61 | 170 | 6.1 | 11.3 | 0.00 | 0.00 | 0.00 | 65 | 1015.1 |
| 20260507102217 | 61 | 193 | 4.3 | 10.4 | 0.00 | 0.00 | 0.00 | 64 | 1015.0 |
| 20260507101003 | 59 | 146 | 4.3 | 12.2 | 0.00 | 0.00 | 0.00 | 71 | 1015.1 |
| 20260507100003 | 60 | 147 | 6.1 | 12.2 | 0.00 | 0.00 | 0.00 | 68 | 1015.2 |
| 20260507095003 | 59 | 186 | 2.6 | 7.8 | 0.00 | 0.00 | 0.00 | 71 | 1015.1 |
| 20260507094003 | 58 | 186 | 3.5 | 8.7 | 0.00 | 0.00 | 0.00 | 71 | 1015.0 |
| 20260507093003 | 58 | 205 | 3.5 | 7.8 | 0.00 | 0.00 | 0.00 | 74 | 1015.0 |
| 20260507092003 | 58 | 192 | 3.5 | 7.8 | 0.00 | 0.00 | 0.00 | 74 | 1015.0 |
| 20260507091217 | 58 | 196 | 3.5 | 7.8 | 0.00 | 0.00 | 0.00 | 74 | 1015.0 |
| 20260507090005 | 57 | 153 | 4.3 | 10.4 | 0.00 | 0.00 | 0.00 | 76 | 1015.0 |
| 20260507085217 | 57 | 162 | 3.5 | 10.4 | 0.00 | 0.00 | 0.00 | 78 | 1015.0 |
| 20260507084217 | 56 | 171 | 3.5 | 10.4 | 0.00 | 0.00 | 0.00 | 77 | 1015.0 |
| 20260507083003 | 56 | 132 | 6.1 | 10.4 | 0.00 | 0.00 | 0.00 | 77 | 1015.1 |
| 20260507082003 | 55 | 154 | 4.3 | 8.7 | 0.00 | 0.00 | 0.00 | 83 | 1015.1 |
| 20260507081003 | 54 | 160 | 2.6 | 7.0 | 0.00 | 0.00 | 0.00 | 84 | 1015.1 |
| 20260507080003 | 54 | 157 | 1.7 | 5.2 | 0.00 | 0.00 | 0.00 | 83 | 1015.1 |
| 20260507075003 | 53 | 147 | 1.7 | 3.5 | 0.00 | 0.00 | 0.00 | 86 | 1015.1 |
| 20260507074216 | 52 | 146 | 1.7 | 3.5 | 0.00 | 0.00 | 0.00 | 87 | 1015.1 |
| 20260507073003 | 51 | 143 | 0.9 | 2.6 | 0.00 | 0.00 | 0.00 | 87 | 1015.0 |
| 20260507072003 | 51 | 141 | 0.9 | 2.6 | 0.00 | 0.00 | 0.00 | 87 | 1014.9 |
| 20260507071003 | 50 | 92 | 0.9 | 1.7 | 0.00 | 0.00 | 0.00 | 88 | 1014.8 |
| 20260507070005 | 49 | 0 | 0.0 | 1.7 | 0.00 | 0.00 | 0.00 | 90 | 1014.8 |
| 20260507065003 | 48 | 0 | 0.0 | 0.0 | 0.00 | 0.00 | 0.00 | 90 | 1014.8 |
| 20260507064003 | 48 | 0 | 0.0 | 0.0 | 0.00 | 0.00 | 0.00 | 90 | 1014.7 |
| 20260507063003 | 48 | 0 | 0.0 | 0.9 | 0.00 | 0.00 | 0.00 | 91 | 1014.6 |
| 20260507062004 | 47 | 0 | 0.0 | 0.9 | 0.00 | 0.00 | 0.00 | 91 | 1014.6 |
| 20260507061003 | 47 | 0 | 0.0 | 1.7 | 0.00 | 0.00 | 0.00 | 92 | 1014.5 |
| 20260507060003 | 46 | 56 | 0.9 | 2.6 | 0.00 | 0.00 | 0.00 | 93 | 1014.5 |
| 20260507055003 | 46 | 0 | 0.0 | 1.7 | 0.00 | 0.00 | 0.00 | 93 | 1014.5 |
| 20260507054003 | 45 | 0 | 0.0 | 0.0 | 0.00 | 0.00 | 0.00 | 93 | 1014.4 |
| 20260507053005 | 46 | 0 | 0.0 | 1.7 | 0.00 | 0.00 | 0.00 | 93 | 1014.4 |
| 20260507052003 | 46 | 0 | 0.0 | 1.7 | 0.00 | 0.00 | 0.00 | 94 | 1014.4 |
| 20260507051217 | 46 | 0 | 0.0 | 0.0 | 0.00 | 0.00 | 0.00 | 94 | 1014.4 |
| 20260507050003 | 45 | 0 | 0.0 | 0.0 | 0.00 | 0.00 | 0.00 | 94 | 1014.4 |
| 20260507045217 | 45 | 0 | 0.0 | 0.0 | 0.00 | 0.00 | 0.00 | 93 | 1014.4 |
| 20260507044003 | 46 | 0 | 0.0 | 0.0 | 0.00 | 0.00 | 0.00 | 93 | 1014.4 |
| 20260507043004 | 45 | 0 | 0.0 | 0.0 | 0.00 | 0.00 | 0.00 | 94 | 1014.4 |
| 20260507042003 | 45 | 0 | 0.0 | 0.0 | 0.00 | 0.00 | 0.00 | 93 | 1014.3 |
| 20260507041003 | 45 | 0 | 0.0 | 0.0 | 0.00 | 0.00 | 0.00 | 93 | 1014.2 |
| 20260507040003 | 45 | 0 | 0.0 | 0.0 | 0.00 | 0.00 | 0.00 | 92 | 1014.2 |
| 20260507035003 | 45 | 0 | 0.0 | 0.0 | 0.00 | 0.00 | 0.00 | 92 | 1014.1 |
| 20260507034003 | 45 | 0 | 0.0 | 0.0 | 0.00 | 0.00 | 0.00 | 91 | 1014.2 |
| 20260507033003 | 45 | 0 | 0.0 | 0.0 | 0.00 | 0.00 | 0.00 | 91 | 1014.1 |
| 20260507032003 | 46 | 0 | 0.0 | 0.0 | 0.00 | 0.00 | 0.00 | 90 | 1014.0 |
| 20260507031003 | 46 | 0 | 0.0 | 0.0 | 0.00 | 0.00 | 0.00 | 90 | 1014.0 |
| 20260507030004 | 46 | 0 | 0.0 | 0.9 | 0.00 | 0.00 | 0.00 | 89 | 1014.0 |
| 20260507025003 | 47 | 37 | 1.7 | 3.5 | 0.00 | 0.00 | 0.00 | 89 | 1014.0 |
| 20260507024003 | 47 | 37 | 1.7 | 4.3 | 0.00 | 0.00 | 0.00 | 89 | 1013.9 |
| 20260507023003 | 47 | 32 | 1.7 | 4.3 | 0.00 | 0.00 | 0.00 | 89 | 1013.9 |
| 20260507022003 | 47 | 0 | 0.0 | 0.0 | 0.00 | 0.00 | 0.00 | 90 | 1013.9 |
| 20260507021003 | 47 | 0 | 0.0 | 0.0 | 0.00 | 0.00 | 0.00 | 90 | 1013.8 |
| 20260507020003 | 48 | 0 | 0.0 | 0.0 | 0.00 | 0.00 | 0.00 | 88 | 1013.8 |
| 20260507015004 | 48 | 0 | 0.0 | 0.0 | 0.00 | 0.00 | 0.00 | 87 | 1013.9 |
| 20260507014003 | 48 | 29 | 0.9 | 2.6 | 0.00 | 0.00 | 0.00 | 87 | 1013.9 |
| 20260507013003 | 48 | 29 | 1.7 | 2.6 | 0.00 | 0.00 | 0.00 | 87 | 1013.9 |
| 20260507012003 | 48 | 36 | 1.7 | 3.5 | 0.00 | 0.00 | 0.00 | 86 | 1013.9 |
| 20260507011218 | 49 | 39 | 1.7 | 3.5 | 0.00 | 0.00 | 0.00 | 87 | 1013.9 |
| 20260507010003 | 49 | 38 | 2.6 | 4.3 | 0.00 | 0.00 | 0.00 | 86 | 1013.9 |
| 20260507005003 | 49 | 69 | 1.7 | 4.3 | 0.00 | 0.00 | 0.00 | 87 | 1014.0 |
| 20260507004218 | 49 | 0 | 0.0 | 2.6 | 0.00 | 0.00 | 0.00 | 87 | 1013.9 |
| 20260507003218 | 49 | 0 | 0.0 | 0.0 | 0.00 | 0.00 | 0.00 | 87 | 1014.0 |
| 20260507002003 | 49 | 0 | 0.0 | 0.0 | 0.00 | 0.00 | 0.00 | 86 | 1014.1 |
| 20260507001003 | 49 | 0 | 0.0 | 0.0 | 0.00 | 0.00 | 0.00 | 85 | 1014.1 |
| 20260507000003 | 49 | 0 | 0.0 | 0.0 | 0.00 | 0.00 | 0.00 | 84 | 1014.2 |
| 20260506235003 | 49 | 0 | 0.0 | 0.0 | 0.00 | 0.00 | 0.00 | 84 | 1014.2 |
| 20260506234003 | 49 | 0 | 0.0 | 0.0 | 0.00 | 0.00 | 0.00 | 84 | 1014.2 |
| 20260506233003 | 49 | 0 | 0.0 | 0.0 | 0.00 | 0.00 | 0.00 | 84 | 1014.1 |
| 20260506232003 | 49 | 0 | 0.0 | 0.0 | 0.00 | 0.00 | 0.00 | 84 | 1014.1 |
| 20260506231003 | 49 | 0 | 0.0 | 0.0 | 0.00 | 0.00 | 0.00 | 84 | 1014.1 |
| 20260506230003 | 49 | 0 | 0.0 | 0.0 | 0.00 | 0.00 | 0.00 | 85 | 1014.2 |
| 20260506225003 | 49 | 0 | 0.0 | 0.0 | 0.00 | 0.00 | 0.00 | 84 | 1014.2 |
| 20260506224003 | 50 | 0 | 0.0 | 0.0 | 0.00 | 0.00 | 0.00 | 83 | 1014.2 |
| 20260506223003 | 50 | 0 | 0.0 | 0.0 | 0.00 | 0.00 | 0.00 | 82 | 1014.2 |
| 20260506222003 | 50 | 0 | 0.0 | 0.0 | 0.00 | 0.00 | 0.00 | 81 | 1014.2 |
| 20260506221003 | 50 | 0 | 0.0 | 0.0 | 0.00 | 0.00 | 0.00 | 81 | 1014.1 |
| 20260506220003 | 50 | 0 | 0.0 | 0.0 | 0.00 | 0.00 | 0.00 | 79 | 1014.1 |
| 20260506215003 | 50 | 0 | 0.0 | 0.0 | 0.00 | 0.00 | 0.00 | 80 | 1014.0 |
| 20260506214003 | 50 | 0 | 0.0 | 0.0 | 0.00 | 0.00 | 0.00 | 80 | 1014.1 |
| 20260506213003 | 50 | 0 | 0.0 | 0.0 | 0.00 | 0.00 | 0.00 | 79 | 1014.1 |
| 20260506212216 | 50 | 0 | 0.0 | 0.0 | 0.00 | 0.00 | 0.00 | 78 | 1014.1 |
| 20260506211004 | 51 | 0 | 0.0 | 0.0 | 0.00 | 0.00 | 0.00 | 78 | 1014.1 |
| 20260506210003 | 51 | 0 | 0.0 | 0.0 | 0.00 | 0.00 | 0.00 | 77 | 1014.0 |
| 20260506205003 | 51 | 0 | 0.0 | 0.0 | 0.00 | 0.00 | 0.00 | 78 | 1014.0 |
| 20260506204216 | 51 | 0 | 0.0 | 0.0 | 0.00 | 0.00 | 0.00 | 78 | 1013.9 |
| 20260506203218 | 52 | 0 | 0.0 | 0.0 | 0.00 | 0.00 | 0.00 | 79 | 1013.9 |
| 20260506202218 | 52 | 0 | 0.0 | 0.0 | 0.00 | 0.00 | 0.00 | 78 | 1013.9 |
| 20260506201003 | 52 | 0 | 0.0 | 0.0 | 0.00 | 0.00 | 0.00 | 78 | 1013.8 |
| 20260506200003 | 52 | 0 | 0.0 | 0.0 | 0.00 | 0.00 | 0.00 | 77 | 1013.7 |
| 20260506195218 | 53 | 0 | 0.0 | 0.0 | 0.00 | 0.00 | 0.00 | 75 | 1013.7 |
| 20260506194218 | 53 | 0 | 0.0 | 1.7 | 0.00 | 0.00 | 0.00 | 74 | 1013.6 |
| 20260506193003 | 53 | 0 | 0.0 | 2.6 | 0.00 | 0.00 | 0.00 | 73 | 1013.5 |
| 20260506192003 | 54 | 0 | 0.0 | 1.7 | 0.00 | 0.00 | 0.00 | 73 | 1013.5 |
| 20260506191218 | 54 | 242 | 0.9 | 2.6 | 0.00 | 0.00 | 0.00 | 72 | 1013.5 |
| 20260506190003 | 54 | 243 | 0.9 | 3.5 | 0.00 | 0.00 | 0.00 | 71 | 1013.4 |
| 20260506185003 | 54 | 250 | 1.7 | 4.3 | 0.00 | 0.00 | 0.00 | 69 | 1013.5 |
| 20260506184003 | 55 | 252 | 1.7 | 3.5 | 0.00 | 0.00 | 0.00 | 68 | 1013.4 |
| 20260506183003 | 55 | 251 | 1.7 | 4.3 | 0.00 | 0.00 | 0.00 | 69 | 1013.4 |
| 20260506182003 | 56 | 246 | 1.7 | 4.3 | 0.00 | 0.00 | 0.00 | 68 | 1013.4 |
| 20260506181003 | 56 | 257 | 1.7 | 3.5 | 0.00 | 0.00 | 0.00 | 67 | 1013.3 |
| 20260506180217 | 56 | 254 | 1.7 | 5.2 | 0.00 | 0.00 | 0.00 | 66 | 1013.3 |
| 20260506175217 | 57 | 245 | 2.6 | 4.3 | 0.00 | 0.00 | 0.00 | 64 | 1013.2 |
| 20260506174219 | 57 | 240 | 1.7 | 3.5 | 0.00 | 0.00 | 0.00 | 63 | 1013.1 |
| 20260506173003 | 58 | 209 | 0.9 | 2.6 | 0.00 | 0.00 | 0.00 | 61 | 1013.1 |
| 20260506172003 | 58 | 0 | 0.0 | 0.0 | 0.00 | 0.00 | 0.00 | 61 | 1013.0 |